{"data":{"norad_id":28908,"intl_designator":"2005-048A","name":"COSMOS 2416 (RODNIK-S 1)","alt_names":[],"object_type":"PAYLOAD","status":"ACTIVE","operator":null,"country":"CIS","launch_date":"2005-12-21","launch_site_code":"PLMSC","launch_vehicle":null,"mission":null,"orbit_class":"UNKNOWN","rcs_meters":1.529,"size_class":null,"mass_kg":null,"dimensions":null,"purposes":[],"wikipedia_slug":null,"has_3d_model":false,"image_url":null,"decayed_at":null,"tle_current":{"epoch":"2026-05-25T00:46:53.088960Z","epoch_age_seconds":72144,"freshness":"FRESH","line1":"1 28908U 05048A   26145.03255890  .00000037  00000+0  16281-3 0  9994","line2":"2 28908  82.4677 322.4707 0007450 215.5604 313.3930 12.55600057935995","mean_motion":12.55600057,"eccentricity":0.000745,"inclination_deg":82.4677,"raan_deg":322.4707,"arg_perigee_deg":215.5604,"mean_anomaly_deg":313.393,"bstar":0.00016281,"rev_number":93599,"period_min":114.68620059166,"perigee_km":1435.3330812313,"apogee_km":1446.9838314612,"semimajor_km":7819.2954563463,"source":"CELESTRAK","updated_at":"2026-05-25T13:37:55.086050Z"}}}